Time,TemperatureF,DewpointF,PressureIn,WindDirection,WindDirectionDegrees,WindSpeedMPH,WindSpeedGustMPH,Humidity,HourlyPrecipIn,Conditions,Clouds,dailyrainin,SoftwareType,DateUTC
2013-03-07 00:00:00,29.7,26.0,30.29,NW,311,0.0,0.0,86,0.00,,,0.25,Wunderground v.1.15,2013-03-07 06:00:00,
2013-03-07 00:05:00,29.7,25.7,30.29,NW,316,1.0,1.0,85,0.00,,,0.00,Wunderground v.1.15,2013-03-07 06:05:00,
2013-03-07 00:11:00,29.6,25.6,30.29,WNW,298,1.0,2.0,85,0.00,,,0.00,Wunderground v.1.15,2013-03-07 06:11:00,
2013-03-07 00:16:00,29.6,25.9,30.30,WNW,298,1.0,2.0,86,0.00,,,0.00,Wunderground v.1.15,2013-03-07 06:16:00,
2013-03-07 00:21:00,29.6,25.9,30.30,WNW,297,1.0,1.0,86,0.00,,,0.00,Wunderground v.1.15,2013-03-07 06:21:00,
2013-03-07 00:27:00,29.5,25.8,30.30,WNW,297,1.0,1.0,86,0.00,,,0.00,Wunderground v.1.15,2013-03-07 06:27:00,
2013-03-07 00:32:00,29.5,25.5,30.30,WNW,286,0.0,1.0,85,0.00,,,0.00,Wunderground v.1.15,2013-03-07 06:32:00,
2013-03-07 00:38:00,29.4,25.7,30.30,WNW,282,0.0,1.0,86,0.00,,,0.00,Wunderground v.1.15,2013-03-07 06:38:00,
2013-03-07 00:43:00,29.4,25.7,30.30,WSW,257,0.0,2.0,86,0.00,,,0.00,Wunderground v.1.15,2013-03-07 06:43:00,
2013-03-07 00:48:00,29.4,25.4,30.31,WSW,257,1.0,2.0,85,0.00,,,0.00,Wunderground v.1.15,2013-03-07 06:48:00,
2013-03-07 00:53:00,29.5,25.5,30.31,WSW,249,1.0,2.0,85,0.00,,,0.00,Wunderground v.1.15,2013-03-07 06:53:00,
2013-03-07 00:59:00,29.5,25.5,30.31,WSW,249,1.0,2.0,85,0.00,,,0.00,Wunderground v.1.15,2013-03-07 06:59:00,
2013-03-07 01:04:00,29.5,25.8,30.31,WSW,249,0.0,3.0,86,0.00,,,0.00,Wunderground v.1.15,2013-03-07 07:04:00,
2013-03-07 01:10:00,29.4,25.7,30.32,West,271,0.0,0.0,86,0.00,,,0.00,Wunderground v.1.15,2013-03-07 07:10:00,
2013-03-07 01:16:00,29.4,25.4,30.32,West,271,0.0,0.0,85,0.00,,,0.00,Wunderground v.1.15,2013-03-07 07:16:00,
2013-03-07 01:22:00,29.3,25.6,30.32,WNW,284,1.0,2.0,86,0.00,,,0.00,Wunderground v.1.15,2013-03-07 07:22:00,
2013-03-07 01:28:00,29.4,25.4,30.32,WNW,289,1.0,2.0,85,0.00,,,0.00,Wunderground v.1.15,2013-03-07 07:28:00,
2013-03-07 01:33:00,29.3,25.4,30.32,NW,305,1.0,1.0,85,0.00,,,0.00,Wunderground v.1.15,2013-03-07 07:33:00,
2013-03-07 01:39:00,29.3,25.6,30.33,WNW,297,1.0,3.0,86,0.00,,,0.00,Wunderground v.1.15,2013-03-07 07:39:00,
2013-03-07 01:44:00,29.3,25.6,30.33,NNW,329,1.0,2.0,86,0.00,,,0.00,Wunderground v.1.15,2013-03-07 07:44:00,
2013-03-07 01:49:00,29.3,25.6,30.33,WNW,282,1.0,2.0,86,0.00,,,0.00,Wunderground v.1.15,2013-03-07 07:49:00,
2013-03-07 01:55:00,29.3,25.6,30.33,WNW,284,1.0,2.0,86,0.00,,,0.00,Wunderground v.1.15,2013-03-07 07:55:00,
2013-03-07 02:00:00,29.2,25.5,30.33,WNW,286,1.0,1.0,86,0.00,,,0.00,Wunderground v.1.15,2013-03-07 08:00:00,
2013-03-07 02:06:00,29.2,25.5,30.33,WNW,286,1.0,3.0,86,0.00,,,0.00,Wunderground v.1.15,2013-03-07 08:06:00,
2013-03-07 02:11:00,29.2,25.3,30.33,West,266,1.0,1.0,85,0.00,,,0.00,Wunderground v.1.15,2013-03-07 08:11:00,
2013-03-07 02:16:00,29.2,25.3,30.33,West,273,1.0,1.0,85,0.00,,,0.00,Wunderground v.1.15,2013-03-07 08:16:00,
2013-03-07 02:21:00,29.2,25.3,30.33,NW,317,1.0,1.0,85,0.00,,,0.00,Wunderground v.1.15,2013-03-07 08:21:00,
2013-03-07 02:27:00,29.1,25.2,30.33,West,279,1.0,2.0,85,0.00,,,0.00,Wunderground v.1.15,2013-03-07 08:27:00,
2013-03-07 02:32:00,29.1,25.2,30.33,West,275,1.0,2.0,85,0.00,,,0.00,Wunderground v.1.15,2013-03-07 08:32:00,
2013-03-07 02:37:00,29.1,25.2,30.33,WNW,300,1.0,2.0,85,0.00,,,0.00,Wunderground v.1.15,2013-03-07 08:37:00,
2013-03-07 02:43:00,29.1,25.2,30.34,WNW,293,1.0,2.0,85,0.00,,,0.00,Wunderground v.1.15,2013-03-07 08:43:00,
2013-03-07 02:48:00,29.1,25.2,30.34,WNW,301,1.0,2.0,85,0.00,,,0.00,Wunderground v.1.15,2013-03-07 08:48:00,
2013-03-07 02:53:00,29.0,25.1,30.33,WNW,300,1.0,1.0,85,0.00,,,0.00,Wunderground v.1.15,2013-03-07 08:53:00,
2013-03-07 02:58:00,29.0,25.1,30.33,WNW,292,1.0,1.0,85,0.00,,,0.00,Wunderground v.1.15,2013-03-07 08:58:00,
2013-03-07 03:04:00,29.0,25.3,30.34,West,275,1.0,3.0,86,0.00,,,0.00,Wunderground v.1.15,2013-03-07 09:04:00,
2013-03-07 03:09:00,28.9,25.2,30.34,West,275,1.0,3.0,86,0.00,,,0.00,Wunderground v.1.15,2013-03-07 09:09:00,
2013-03-07 03:14:00,28.9,25.2,30.34,West,275,1.0,1.0,86,0.00,,,0.00,Wunderground v.1.15,2013-03-07 09:14:00,
2013-03-07 03:19:00,28.9,25.2,30.33,West,275,0.0,1.0,86,0.00,,,0.00,Wunderground v.1.15,2013-03-07 09:19:00,
2013-03-07 03:25:00,28.8,25.1,30.33,West,275,0.0,1.0,86,0.00,,,0.00,Wunderground v.1.15,2013-03-07 09:25:00,
2013-03-07 03:31:00,28.8,25.1,30.33,West,275,0.0,0.0,86,0.00,,,0.00,Wunderground v.1.15,2013-03-07 09:31:00,
2013-03-07 03:36:00,28.7,25.3,30.34,West,275,0.0,0.0,87,0.00,,,0.00,Wunderground v.1.15,2013-03-07 09:36:00,
2013-03-07 03:41:00,28.7,25.3,30.33,NNE,32,0.0,3.0,87,0.00,,,0.00,Wunderground v.1.15,2013-03-07 09:41:00,
2013-03-07 03:47:00,28.6,24.9,30.33,NNE,19,0.0,3.0,86,0.00,,,0.00,Wunderground v.1.15,2013-03-07 09:47:00,
2013-03-07 03:52:00,28.6,24.9,30.33,NNE,19,0.0,0.0,86,0.00,,,0.00,Wunderground v.1.15,2013-03-07 09:52:00,
2013-03-07 03:57:00,28.5,24.8,30.33,WNW,294,0.0,1.0,86,0.00,,,0.00,Wunderground v.1.15,2013-03-07 09:57:00,
2013-03-07 04:02:00,28.6,24.9,30.33,WNW,294,0.0,2.0,86,0.00,,,0.00,Wunderground v.1.15,2013-03-07 10:02:00,
2013-03-07 04:08:00,28.5,24.8,30.33,WNW,294,0.0,2.0,86,0.00,,,0.00,Wunderground v.1.15,2013-03-07 10:08:00,
2013-03-07 04:14:00,28.5,24.8,30.33,WNW,294,0.0,1.0,86,0.00,,,0.00,Wunderground v.1.15,2013-03-07 10:14:00,
2013-03-07 04:20:00,28.6,24.9,30.33,WNW,294,0.0,0.0,86,0.00,,,0.00,Wunderground v.1.15,2013-03-07 10:20:00,
2013-03-07 04:25:00,28.6,24.7,30.33,WNW,294,0.0,0.0,85,0.00,,,0.00,Wunderground v.1.15,2013-03-07 10:25:00,
2013-03-07 04:31:00,28.5,24.8,30.33,WNW,294,0.0,0.0,86,0.00,,,0.00,Wunderground v.1.15,2013-03-07 10:31:00,
2013-03-07 04:36:00,28.4,24.7,30.33,WNW,294,0.0,0.0,86,0.00,,,0.00,Wunderground v.1.15,2013-03-07 10:36:00,
2013-03-07 04:41:00,28.4,24.7,30.33,WNW,294,0.0,0.0,86,0.00,,,0.00,Wunderground v.1.15,2013-03-07 10:41:00,
2013-03-07 04:47:00,28.3,24.6,30.33,WNW,294,0.0,0.0,86,0.00,,,0.00,Wunderground v.1.15,2013-03-07 10:47:00,
2013-03-07 04:52:00,28.3,24.6,30.33,WNW,294,0.0,0.0,86,0.00,,,0.00,Wunderground v.1.15,2013-03-07 10:52:00,
2013-03-07 04:57:00,28.2,24.6,30.33,WNW,294,0.0,0.0,86,0.00,,,0.00,Wunderground v.1.15,2013-03-07 10:57:00,
2013-03-07 05:02:00,28.1,24.5,30.34,WNW,294,0.0,2.0,86,0.00,,,0.00,Wunderground v.1.15,2013-03-07 11:02:00,
2013-03-07 05:08:00,28.1,24.5,30.34,WNW,294,0.0,2.0,86,0.00,,,0.00,Wunderground v.1.15,2013-03-07 11:08:00,
2013-03-07 05:13:00,28.0,24.4,30.34,WNW,294,0.0,0.0,86,0.00,,,0.00,Wunderground v.1.15,2013-03-07 11:13:00,
2013-03-07 05:18:00,28.0,24.6,30.34,WNW,294,0.0,0.0,87,0.00,,,0.00,Wunderground v.1.15,2013-03-07 11:18:00,
2013-03-07 05:23:00,27.9,24.5,30.34,WNW,294,0.0,0.0,87,0.00,,,0.00,Wunderground v.1.15,2013-03-07 11:23:00,
2013-03-07 05:29:00,27.8,24.4,30.35,WNW,294,0.0,0.0,87,0.00,,,0.00,Wunderground v.1.15,2013-03-07 11:29:00,
2013-03-07 05:35:00,27.8,24.4,30.35,WNW,294,0.0,1.0,87,0.00,,,0.00,Wunderground v.1.15,2013-03-07 11:35:00,
2013-03-07 05:40:00,27.8,24.4,30.35,North,10,0.0,0.0,87,0.00,,,0.00,Wunderground v.1.15,2013-03-07 11:40:00,
2013-03-07 05:45:00,27.7,24.3,30.35,North,10,0.0,0.0,87,0.00,,,0.00,Wunderground v.1.15,2013-03-07 11:45:00,
2013-03-07 05:50:00,27.6,24.2,30.35,North,10,0.0,0.0,87,0.00,,,0.00,Wunderground v.1.15,2013-03-07 11:50:00,
2013-03-07 05:56:00,27.6,24.2,30.35,North,10,0.0,0.0,87,0.00,,,0.00,Wunderground v.1.15,2013-03-07 11:56:00,
2013-03-07 06:01:00,27.5,24.1,30.36,North,10,0.0,0.0,87,0.00,,,0.00,Wunderground v.1.15,2013-03-07 12:01:00,
2013-03-07 06:07:00,27.4,24.0,30.35,North,10,0.0,0.0,87,0.00,,,0.00,Wunderground v.1.15,2013-03-07 12:07:00,
2013-03-07 06:13:00,27.2,23.8,30.35,North,10,0.0,0.0,87,0.00,,,0.00,Wunderground v.1.15,2013-03-07 12:13:00,
2013-03-07 06:18:00,27.2,23.6,30.35,North,10,0.0,0.0,86,0.00,,,0.00,Wunderground v.1.15,2013-03-07 12:18:00,
2013-03-07 06:24:00,27.1,23.5,30.35,North,10,0.0,0.0,86,0.00,,,0.00,Wunderground v.1.15,2013-03-07 12:24:00,
2013-03-07 06:29:00,27.0,23.4,30.35,North,10,0.0,0.0,86,0.00,,,0.00,Wunderground v.1.15,2013-03-07 12:29:00,
2013-03-07 06:34:00,26.9,23.3,30.36,North,10,0.0,0.0,86,0.00,,,0.00,Wunderground v.1.15,2013-03-07 12:34:00,
2013-03-07 06:39:00,26.9,23.3,30.36,North,10,0.0,0.0,86,0.00,,,0.00,Wunderground v.1.15,2013-03-07 12:39:00,
2013-03-07 06:44:00,26.9,23.3,30.36,North,10,0.0,0.0,86,0.00,,,0.00,Wunderground v.1.15,2013-03-07 12:44:00,
2013-03-07 06:49:00,27.0,23.4,30.36,North,10,0.0,0.0,86,0.00,,,0.00,Wunderground v.1.15,2013-03-07 12:49:00,
2013-03-07 06:55:00,27.1,23.5,30.36,North,10,0.0,1.0,86,0.00,,,0.00,Wunderground v.1.15,2013-03-07 12:55:00,
2013-03-07 07:00:00,27.2,23.3,30.36,North,10,0.0,1.0,85,0.00,,,0.00,Wunderground v.1.15,2013-03-07 13:00:00,
2013-03-07 07:05:00,27.3,23.4,30.37,North,9,1.0,2.0,85,0.00,,,0.00,Wunderground v.1.15,2013-03-07 13:05:00,
2013-03-07 07:11:00,27.5,23.6,30.37,North,9,1.0,1.0,85,0.00,,,0.00,Wunderground v.1.15,2013-03-07 13:11:00,
2013-03-07 07:16:00,27.6,23.4,30.37,North,9,0.0,1.0,84,0.00,,,0.00,Wunderground v.1.15,2013-03-07 13:16:00,
2013-03-07 07:22:00,27.7,23.5,30.37,North,9,0.0,1.0,84,0.00,,,0.00,Wunderground v.1.15,2013-03-07 13:22:00,
2013-03-07 07:28:00,27.9,23.4,30.38,North,360,1.0,3.0,83,0.00,,,0.00,Wunderground v.1.15,2013-03-07 13:28:00,
2013-03-07 07:33:00,28.0,23.5,30.38,North,360,1.0,2.0,83,0.00,,,0.00,Wunderground v.1.15,2013-03-07 13:33:00,
2013-03-07 07:38:00,28.1,23.6,30.38,NNW,342,1.0,2.0,83,0.00,,,0.00,Wunderground v.1.15,2013-03-07 13:38:00,
2013-03-07 07:43:00,28.3,23.8,30.38,North,360,1.0,1.0,83,0.00,,,0.00,Wunderground v.1.15,2013-03-07 13:43:00,
2013-03-07 07:48:00,28.5,23.7,30.38,North,355,1.0,4.0,82,0.00,,,0.00,Wunderground v.1.15,2013-03-07 13:48:00,
2013-03-07 07:54:00,28.6,23.5,30.38,North,5,1.0,2.0,81,0.00,,,0.00,Wunderground v.1.15,2013-03-07 13:54:00,
2013-03-07 07:59:00,28.7,23.9,30.38,North,9,0.0,2.0,82,0.00,,,0.00,Wunderground v.1.15,2013-03-07 13:59:00,
2013-03-07 08:04:00,28.9,24.1,30.38,North,360,0.0,3.0,82,0.00,,,0.00,Wunderground v.1.15,2013-03-07 14:04:00,
2013-03-07 08:09:00,29.0,23.6,30.39,NNW,342,1.0,3.0,80,0.00,,,0.00,Wunderground v.1.15,2013-03-07 14:09:00,
2013-03-07 08:14:00,29.1,23.7,30.39,North,350,1.0,1.0,80,0.00,,,0.00,Wunderground v.1.15,2013-03-07 14:14:00,
2013-03-07 08:19:00,29.3,23.6,30.39,North,355,1.0,2.0,79,0.00,,,0.00,Wunderground v.1.15,2013-03-07 14:19:00,
2013-03-07 08:25:00,29.5,24.1,30.39,North,5,1.0,2.0,80,0.00,,,0.00,Wunderground v.1.15,2013-03-07 14:25:00,
2013-03-07 08:31:00,29.6,23.9,30.40,NNW,345,1.0,2.0,79,0.00,,,0.00,Wunderground v.1.15,2013-03-07 14:31:00,
2013-03-07 08:36:00,29.8,23.8,30.39,NNE,12,1.0,4.0,78,0.00,,,0.00,Wunderground v.1.15,2013-03-07 14:36:00,
2013-03-07 08:42:00,30.0,24.0,30.39,North,5,1.0,1.0,78,0.00,,,0.00,Wunderground v.1.15,2013-03-07 14:42:00,
2013-03-07 08:47:00,30.2,23.9,30.39,North,11,1.0,1.0,77,0.00,,,0.00,Wunderground v.1.15,2013-03-07 14:47:00,
2013-03-07 08:52:00,30.3,24.0,30.39,NW,305,1.0,3.0,77,0.00,,,0.00,Wunderground v.1.15,2013-03-07 14:52:00,
2013-03-07 08:58:00,30.4,23.7,30.39,WNW,302,1.0,3.0,76,0.00,,,0.00,Wunderground v.1.15,2013-03-07 14:58:00,
2013-03-07 09:06:00,30.5,24.1,30.39,North,360,1.0,2.0,77,0.00,,,0.00,Wunderground v.1.15,2013-03-07 15:06:00,
2013-03-07 09:12:00,30.7,24.0,30.40,NW,309,1.0,1.0,76,0.00,,,0.00,Wunderground v.1.15,2013-03-07 15:12:00,
2013-03-07 09:18:00,30.9,24.2,30.40,NW,306,0.0,2.0,76,0.00,,,0.00,Wunderground v.1.15,2013-03-07 15:18:00,
2013-03-07 09:23:00,30.9,24.2,30.40,NW,306,1.0,1.0,76,0.00,,,0.00,Wunderground v.1.15,2013-03-07 15:23:00,
2013-03-07 09:29:00,30.9,24.2,30.40,WNW,300,1.0,1.0,76,0.00,,,0.00,Wunderground v.1.15,2013-03-07 15:29:00,
2013-03-07 09:34:00,31.1,24.4,30.40,WNW,296,1.0,1.0,76,0.00,,,0.00,Wunderground v.1.15,2013-03-07 15:34:00,
2013-03-07 09:39:00,31.5,24.8,30.40,NNW,327,1.0,2.0,76,0.00,,,0.00,Wunderground v.1.15,2013-03-07 15:39:00,
2013-03-07 09:45:00,31.9,24.9,30.40,WNW,295,1.0,2.0,75,0.00,,,0.00,Wunderground v.1.15,2013-03-07 15:45:00,
2013-03-07 09:51:00,32.4,25.4,30.40,North,355,1.0,2.0,75,0.00,,,0.00,Wunderground v.1.15,2013-03-07 15:51:00,
2013-03-07 09:56:00,32.5,24.8,30.40,North,355,2.0,3.0,73,0.00,,,0.00,Wunderground v.1.15,2013-03-07 15:56:00,
2013-03-07 10:01:00,32.4,25.0,30.40,North,350,2.0,4.0,74,0.00,,,0.00,Wunderground v.1.15,2013-03-07 16:01:00,
2013-03-07 10:07:00,32.2,24.8,30.40,North,355,2.0,4.0,74,0.00,,,0.00,Wunderground v.1.15,2013-03-07 16:07:00,
2013-03-07 10:13:00,32.1,24.4,30.40,North,360,2.0,3.0,73,0.00,,,0.00,Wunderground v.1.15,2013-03-07 16:13:00,
2013-03-07 10:18:00,32.3,24.9,30.39,North,5,2.0,4.0,74,0.00,,,0.00,Wunderground v.1.15,2013-03-07 16:18:00,
2013-03-07 10:23:00,32.6,25.2,30.39,WSW,245,1.0,3.0,74,0.00,,,0.00,Wunderground v.1.15,2013-03-07 16:23:00,
2013-03-07 10:28:00,32.8,25.4,30.39,NW,315,1.0,3.0,74,0.00,,,0.00,Wunderground v.1.15,2013-03-07 16:28:00,
2013-03-07 10:33:00,32.9,24.9,30.39,NW,324,1.0,2.0,72,0.00,,,0.00,Wunderground v.1.15,2013-03-07 16:33:00,
2013-03-07 10:39:00,33.0,25.0,30.39,North,355,1.0,5.0,72,0.00,,,0.00,Wunderground v.1.15,2013-03-07 16:39:00,
2013-03-07 10:45:00,32.9,24.9,30.39,NNW,347,2.0,2.0,72,0.00,,,0.01,Wunderground v.1.15,2013-03-07 16:45:00,
2013-03-07 10:50:00,32.8,24.8,30.39,NNW,340,2.0,4.0,72,0.00,,,0.01,Wunderground v.1.15,2013-03-07 16:50:00,
2013-03-07 10:56:00,33.1,25.4,30.39,North,360,1.0,4.0,73,0.00,,,0.01,Wunderground v.1.15,2013-03-07 16:56:00,
2013-03-07 11:01:00,33.5,25.1,30.39,North,355,2.0,4.0,71,0.00,,,0.01,Wunderground v.1.15,2013-03-07 17:01:00,
2013-03-07 11:06:00,33.4,25.0,30.39,North,5,3.0,4.0,71,0.00,,,0.01,Wunderground v.1.15,2013-03-07 17:06:00,
2013-03-07 11:12:00,33.3,24.9,30.39,North,10,3.0,4.0,71,0.00,,,0.01,Wunderground v.1.15,2013-03-07 17:12:00,
2013-03-07 11:17:00,33.3,24.9,30.40,North,5,2.0,4.0,71,0.00,,,0.01,Wunderground v.1.15,2013-03-07 17:17:00,
2013-03-07 11:22:00,33.4,25.0,30.40,NW,321,2.0,3.0,71,0.00,,,0.01,Wunderground v.1.15,2013-03-07 17:22:00,
2013-03-07 11:28:00,33.5,25.1,30.40,NNW,340,2.0,4.0,71,0.00,,,0.01,Wunderground v.1.15,2013-03-07 17:28:00,
2013-03-07 11:33:00,33.7,25.3,30.40,NW,306,2.0,2.0,71,0.00,,,0.01,Wunderground v.1.15,2013-03-07 17:33:00,
2013-03-07 11:38:00,33.9,25.1,30.40,NNW,344,1.0,2.0,70,0.00,,,0.01,Wunderground v.1.15,2013-03-07 17:38:00,
2013-03-07 11:44:00,33.9,25.1,30.40,NNE,15,1.0,5.0,70,0.00,,,0.01,Wunderground v.1.15,2013-03-07 17:44:00,
2013-03-07 11:49:00,33.9,25.5,30.40,North,360,2.0,5.0,71,0.00,,,0.01,Wunderground v.1.15,2013-03-07 17:49:00,
2013-03-07 11:54:00,34.1,25.0,30.40,North,351,2.0,5.0,69,0.00,,,0.01,Wunderground v.1.15,2013-03-07 17:54:00,
2013-03-07 12:01:00,34.0,25.2,30.40,North,351,2.0,4.0,70,0.00,,,0.02,Wunderground v.1.15,2013-03-07 18:01:00,
2013-03-07 12:06:00,34.6,25.8,30.40,North,360,2.0,4.0,70,0.00,,,0.02,Wunderground v.1.15,2013-03-07 18:06:00,
2013-03-07 12:11:00,35.5,26.3,30.39,NNW,338,1.0,2.0,69,0.00,,,0.02,Wunderground v.1.15,2013-03-07 18:11:00,
2013-03-07 12:16:00,35.7,25.4,30.39,North,355,1.0,4.0,66,0.00,,,0.02,Wunderground v.1.15,2013-03-07 18:16:00,
2013-03-07 12:21:00,35.3,25.4,30.39,North,10,2.0,4.0,67,0.00,,,0.02,Wunderground v.1.15,2013-03-07 18:21:00,
2013-03-07 12:26:00,35.0,25.1,30.39,NNW,346,3.0,4.0,67,0.00,,,0.03,Wunderground v.1.15,2013-03-07 18:26:00,
2013-03-07 12:31:00,34.8,25.7,30.39,North,360,2.0,2.0,69,0.00,,,0.03,Wunderground v.1.15,2013-03-07 18:31:00,
2013-03-07 12:36:00,35.4,25.9,30.39,NNW,344,2.0,4.0,68,0.00,,,0.03,Wunderground v.1.15,2013-03-07 18:36:00,
2013-03-07 12:41:00,35.4,25.5,30.38,North,355,2.0,4.0,67,0.04,,,0.04,Wunderground v.1.15,2013-03-07 18:41:00,
2013-03-07 12:47:00,35.5,26.3,30.38,NNW,342,3.0,5.0,69,0.04,,,0.04,Wunderground v.1.15,2013-03-07 18:47:00,
2013-03-07 12:52:00,36.0,26.5,30.38,North,360,2.0,2.0,68,0.05,,,0.04,Wunderground v.1.15,2013-03-07 18:52:00,
2013-03-07 12:57:00,36.2,25.9,30.38,NNW,344,2.0,4.0,66,0.05,,,0.05,Wunderground v.1.15,2013-03-07 18:57:00,
2013-03-07 13:02:00,36.2,26.6,30.38,North,355,2.0,5.0,68,0.05,,,0.05,Wunderground v.1.15,2013-03-07 19:02:00,
2013-03-07 13:08:00,36.5,26.6,30.38,NNW,348,1.0,5.0,67,0.05,,,0.06,Wunderground v.1.15,2013-03-07 19:08:00,
2013-03-07 13:13:00,37.1,27.5,30.38,North,355,1.0,2.0,68,0.05,,,0.06,Wunderground v.1.15,2013-03-07 19:13:00,
2013-03-07 13:18:00,38.0,28.0,30.38,North,360,1.0,2.0,67,0.05,,,0.07,Wunderground v.1.15,2013-03-07 19:18:00,
2013-03-07 13:23:00,38.5,28.1,30.37,North,355,1.0,1.0,66,0.05,,,0.07,Wunderground v.1.15,2013-03-07 19:23:00,
2013-03-07 13:28:00,38.8,26.9,30.37,North,355,1.0,2.0,62,0.06,,,0.08,Wunderground v.1.15,2013-03-07 19:28:00,
2013-03-07 13:34:00,38.8,27.3,30.37,NNW,331,1.0,1.0,63,0.10,,,0.09,Wunderground v.1.15,2013-03-07 19:34:00,
2013-03-07 13:39:00,38.8,27.3,30.37,NNW,342,1.0,3.0,63,0.10,,,0.10,Wunderground v.1.15,2013-03-07 19:39:00,
2013-03-07 13:44:00,39.0,27.5,30.37,North,351,1.0,3.0,63,0.08,,,0.10,Wunderground v.1.15,2013-03-07 19:44:00,
2013-03-07 13:50:00,38.9,27.8,30.37,North,360,1.0,1.0,64,0.08,,,0.11,Wunderground v.1.15,2013-03-07 19:50:00,
2013-03-07 13:55:00,39.0,27.5,30.37,North,360,1.0,3.0,63,0.07,,,0.12,Wunderground v.1.15,2013-03-07 19:55:00,
2013-03-07 14:00:00,38.9,27.4,30.37,North,355,1.0,2.0,63,0.07,,,0.12,Wunderground v.1.15,2013-03-07 20:00:00,
2013-03-07 14:06:00,38.9,27.0,30.37,North,350,1.0,3.0,62,0.08,,,0.13,Wunderground v.1.15,2013-03-07 20:06:00,
2013-03-07 14:11:00,38.6,26.7,30.37,NNW,345,1.0,2.0,62,0.06,,,0.13,Wunderground v.1.15,2013-03-07 20:11:00,
2013-03-07 14:17:00,38.2,26.7,30.37,NNW,346,1.0,2.0,63,0.05,,,0.14,Wunderground v.1.15,2013-03-07 20:17:00,
2013-03-07 14:22:00,37.9,26.8,30.37,NNW,346,1.0,3.0,64,0.05,,,0.14,Wunderground v.1.15,2013-03-07 20:22:00,
2013-03-07 14:27:00,37.5,26.8,30.37,NNW,336,1.0,3.0,65,0.05,,,0.15,Wunderground v.1.15,2013-03-07 20:27:00,
2013-03-07 14:33:00,38.2,27.5,30.38,NNW,338,1.0,2.0,65,0.05,,,0.15,Wunderground v.1.15,2013-03-07 20:33:00,
2013-03-07 14:38:00,38.0,26.1,30.37,North,355,1.0,4.0,62,0.05,,,0.16,Wunderground v.1.15,2013-03-07 20:38:00,
2013-03-07 14:43:00,37.8,27.1,30.37,North,360,2.0,2.0,65,0.05,,,0.16,Wunderground v.1.15,2013-03-07 20:43:00,
2013-03-07 14:48:00,38.4,27.3,30.38,North,360,1.0,2.0,64,0.05,,,0.17,Wunderground v.1.15,2013-03-07 20:48:00,
2013-03-07 14:54:00,39.1,27.6,30.38,North,360,1.0,1.0,63,0.05,,,0.17,Wunderground v.1.15,2013-03-07 20:54:00,
2013-03-07 15:00:00,39.1,27.2,30.38,North,360,1.0,1.0,62,0.06,,,0.18,Wunderground v.1.15,2013-03-07 21:00:00,
2013-03-07 15:06:00,39.2,26.9,30.38,NNW,331,1.0,4.0,61,0.06,,,0.18,Wunderground v.1.15,2013-03-07 21:06:00,
2013-03-07 15:11:00,39.5,27.5,30.38,West,267,1.0,2.0,62,0.05,,,0.19,Wunderground v.1.15,2013-03-07 21:11:00,
2013-03-07 15:16:00,39.7,26.9,30.38,West,267,1.0,2.0,60,0.05,,,0.19,Wunderground v.1.15,2013-03-07 21:16:00,
2013-03-07 15:21:00,38.9,26.2,30.38,West,267,1.0,1.0,60,0.05,,,0.19,Wunderground v.1.15,2013-03-07 21:21:00,
2013-03-07 15:26:00,38.8,26.9,30.38,NNW,329,1.0,2.0,62,0.04,,,0.19,Wunderground v.1.15,2013-03-07 21:26:00,
2013-03-07 15:32:00,39.1,27.2,30.38,North,360,1.0,3.0,62,0.04,,,0.20,Wunderground v.1.15,2013-03-07 21:32:00,
2013-03-07 15:37:00,39.1,27.2,30.38,North,350,2.0,3.0,62,0.04,,,0.20,Wunderground v.1.15,2013-03-07 21:37:00,
2013-03-07 15:42:00,38.8,26.5,30.38,NNE,32,2.0,2.0,61,0.04,,,0.20,Wunderground v.1.15,2013-03-07 21:42:00,
2013-03-07 15:48:00,39.0,27.8,30.38,NNE,31,1.0,2.0,64,0.00,,,0.21,Wunderground v.1.15,2013-03-07 21:48:00,
2013-03-07 15:53:00,39.7,28.1,30.38,NNE,25,0.0,0.0,63,0.00,,,0.21,Wunderground v.1.15,2013-03-07 21:53:00,
2013-03-07 15:59:00,40.6,27.8,30.37,NNE,25,0.0,1.0,60,0.00,,,0.21,Wunderground v.1.15,2013-03-07 21:59:00,
2013-03-07 16:04:00,41.1,27.4,30.37,NNE,25,0.0,1.0,58,0.00,,,0.21,Wunderground v.1.15,2013-03-07 22:04:00,
2013-03-07 16:10:00,41.6,28.7,30.37,NNE,25,0.0,1.0,60,0.00,,,0.22,Wunderground v.1.15,2013-03-07 22:10:00,
2013-03-07 16:15:00,41.6,28.3,30.37,North,360,0.0,1.0,59,0.00,,,0.22,Wunderground v.1.15,2013-03-07 22:15:00,
2013-03-07 16:20:00,41.5,29.0,30.37,NNE,31,1.0,1.0,61,0.00,,,0.22,Wunderground v.1.15,2013-03-07 22:20:00,
2013-03-07 16:25:00,41.4,28.9,30.37,North,10,1.0,1.0,61,0.00,,,0.22,Wunderground v.1.15,2013-03-07 22:25:00,
2013-03-07 16:30:00,41.4,28.5,30.38,North,355,1.0,1.0,60,0.00,,,0.22,Wunderground v.1.15,2013-03-07 22:30:00,
2013-03-07 16:36:00,41.2,28.4,30.37,NNW,342,1.0,2.0,60,0.00,,,0.22,Wunderground v.1.15,2013-03-07 22:36:00,
2013-03-07 16:41:00,41.1,28.3,30.37,NNW,343,1.0,1.0,60,0.00,,,0.23,Wunderground v.1.15,2013-03-07 22:41:00,
2013-03-07 16:46:00,41.0,28.6,30.37,NNW,343,0.0,1.0,61,0.00,,,0.23,Wunderground v.1.15,2013-03-07 22:46:00,
2013-03-07 16:52:00,40.5,27.7,30.37,NNW,343,0.0,1.0,60,0.00,,,0.23,Wunderground v.1.15,2013-03-07 22:52:00,
2013-03-07 16:58:00,39.7,27.7,30.37,NNW,343,0.0,1.0,62,0.00,,,0.23,Wunderground v.1.15,2013-03-07 22:58:00,
2013-03-07 17:03:00,39.0,27.1,30.37,NNW,343,0.0,1.0,62,0.00,,,0.23,Wunderground v.1.15,2013-03-07 23:03:00,
2013-03-07 17:09:00,38.3,27.2,30.37,NNW,343,0.0,1.0,64,0.00,,,0.23,Wunderground v.1.15,2013-03-07 23:09:00,
2013-03-07 17:15:00,37.6,26.9,30.38,NNW,343,0.0,0.0,65,0.00,,,0.23,Wunderground v.1.15,2013-03-07 23:15:00,
2013-03-07 17:21:00,36.8,26.5,30.38,NNW,343,0.0,0.0,66,0.00,,,0.23,Wunderground v.1.15,2013-03-07 23:21:00,
2013-03-07 17:27:00,36.2,26.6,30.38,NNW,343,0.0,0.0,68,0.00,,,0.23,Wunderground v.1.15,2013-03-07 23:27:00,
2013-03-07 17:32:00,35.6,26.4,30.38,NNW,343,0.0,0.0,69,0.00,,,0.23,Wunderground v.1.15,2013-03-07 23:32:00,
2013-03-07 17:38:00,35.1,26.3,30.38,NNW,343,0.0,0.0,70,0.00,,,0.23,Wunderground v.1.15,2013-03-07 23:38:00,
2013-03-07 17:44:00,34.6,26.2,30.38,NNW,343,0.0,0.0,71,0.00,,,0.23,Wunderground v.1.15,2013-03-07 23:44:00,
2013-03-07 17:50:00,34.1,26.0,30.38,NNW,343,0.0,0.0,72,0.00,,,0.23,Wunderground v.1.15,2013-03-07 23:50:00,
2013-03-07 17:55:00,33.6,25.9,30.38,NNW,343,0.0,0.0,73,0.00,,,0.23,Wunderground v.1.15,2013-03-07 23:55:00,
2013-03-07 18:01:00,33.1,25.4,30.39,NNW,343,0.0,2.0,73,0.00,,,0.23,Wunderground v.1.15,2013-03-08 00:01:00,
2013-03-07 18:06:00,32.6,25.2,30.39,NNW,343,0.0,2.0,74,0.00,,,0.23,Wunderground v.1.15,2013-03-08 00:06:00,
2013-03-07 18:12:00,32.2,25.2,30.39,NNW,343,0.0,0.0,75,0.00,,,0.23,Wunderground v.1.15,2013-03-08 00:12:00,
2013-03-07 18:17:00,31.8,24.8,30.39,NNW,343,0.0,0.0,75,0.00,,,0.23,Wunderground v.1.15,2013-03-08 00:17:00,
2013-03-07 18:22:00,31.5,24.8,30.39,NNW,343,0.0,0.0,76,0.00,,,0.23,Wunderground v.1.15,2013-03-08 00:22:00,
2013-03-07 18:28:00,31.0,24.6,30.39,NNW,343,0.0,0.0,77,0.00,,,0.23,Wunderground v.1.15,2013-03-08 00:28:00,
2013-03-07 18:34:00,30.5,24.1,30.39,NNW,343,0.0,0.0,77,0.00,,,0.23,Wunderground v.1.15,2013-03-08 00:34:00,
2013-03-07 18:39:00,30.2,24.2,30.39,NNW,343,0.0,0.0,78,0.00,,,0.23,Wunderground v.1.15,2013-03-08 00:39:00,
2013-03-07 18:45:00,29.8,24.1,30.39,NNW,343,0.0,0.0,79,0.00,,,0.23,Wunderground v.1.15,2013-03-08 00:45:00,
2013-03-07 18:51:00,29.4,24.0,30.39,NNW,343,0.0,0.0,80,0.00,,,0.23,Wunderground v.1.15,2013-03-08 00:51:00,
2013-03-07 18:57:00,29.0,23.9,30.40,NNW,343,0.0,0.0,81,0.00,,,0.23,Wunderground v.1.15,2013-03-08 00:57:00,
2013-03-07 19:02:00,28.7,23.9,30.40,NNW,343,0.0,0.0,82,0.00,,,0.23,Wunderground v.1.15,2013-03-08 01:02:00,
2013-03-07 19:08:00,28.4,23.9,30.40,NNW,343,0.0,0.0,83,0.00,,,0.23,Wunderground v.1.15,2013-03-08 01:08:00,
2013-03-07 19:13:00,28.3,24.1,30.39,NNW,343,0.0,0.0,84,0.00,,,0.23,Wunderground v.1.15,2013-03-08 01:13:00,
2013-03-07 19:19:00,28.2,24.0,30.40,NNW,343,0.0,0.0,84,0.00,,,0.23,Wunderground v.1.15,2013-03-08 01:19:00,
2013-03-07 19:25:00,28.1,23.9,30.40,NNW,343,0.0,0.0,84,0.00,,,0.23,Wunderground v.1.15,2013-03-08 01:25:00,
2013-03-07 19:31:00,28.0,23.8,30.40,NNW,343,0.0,0.0,84,0.00,,,0.23,Wunderground v.1.15,2013-03-08 01:31:00,
2013-03-07 19:37:00,27.9,23.7,30.40,NNW,343,0.0,0.0,84,0.00,,,0.23,Wunderground v.1.15,2013-03-08 01:37:00,
2013-03-07 19:43:00,27.6,23.4,30.39,NNW,343,0.0,0.0,84,0.00,,,0.23,Wunderground v.1.15,2013-03-08 01:43:00,
2013-03-07 19:49:00,27.5,23.6,30.39,NNW,343,0.0,0.0,85,0.00,,,0.23,Wunderground v.1.15,2013-03-08 01:49:00,
2013-03-07 19:55:00,27.2,23.3,30.39,NNW,343,0.0,0.0,85,0.00,,,0.23,Wunderground v.1.15,2013-03-08 01:55:00,
2013-03-07 20:01:00,27.1,23.2,30.39,NNW,343,0.0,0.0,85,0.00,,,0.23,Wunderground v.1.15,2013-03-08 02:01:00,
2013-03-07 20:06:00,27.0,23.1,30.40,NNW,343,0.0,0.0,85,0.00,,,0.23,Wunderground v.1.15,2013-03-08 02:06:00,
2013-03-07 20:12:00,26.7,22.8,30.39,NNW,343,0.0,0.0,85,0.00,,,0.23,Wunderground v.1.15,2013-03-08 02:12:00,
2013-03-07 20:18:00,26.5,22.9,30.40,NNW,343,0.0,0.0,86,0.00,,,0.23,Wunderground v.1.15,2013-03-08 02:18:00,
2013-03-07 20:24:00,26.3,22.7,30.40,NNW,343,0.0,0.0,86,0.00,,,0.23,Wunderground v.1.15,2013-03-08 02:24:00,
2013-03-07 20:30:00,26.1,22.5,30.40,NNW,343,0.0,0.0,86,0.00,,,0.23,Wunderground v.1.15,2013-03-08 02:30:00,
2013-03-07 20:36:00,25.8,22.2,30.40,NNW,343,0.0,0.0,86,0.00,,,0.23,Wunderground v.1.15,2013-03-08 02:36:00,
2013-03-07 20:42:00,25.6,22.3,30.40,NNW,343,0.0,0.0,87,0.00,,,0.23,Wunderground v.1.15,2013-03-08 02:42:00,
2013-03-07 20:47:00,25.4,22.1,30.40,NNW,343,0.0,0.0,87,0.00,,,0.23,Wunderground v.1.15,2013-03-08 02:47:00,
2013-03-07 20:53:00,25.2,21.9,30.40,NNW,343,0.0,0.0,87,0.00,,,0.23,Wunderground v.1.15,2013-03-08 02:53:00,
2013-03-07 20:59:00,24.9,21.6,30.41,NNW,343,0.0,0.0,87,0.00,,,0.23,Wunderground v.1.15,2013-03-08 02:59:00,
2013-03-07 21:05:00,24.7,21.7,30.41,NNW,343,0.0,0.0,88,0.00,,,0.23,Wunderground v.1.15,2013-03-08 03:05:00,
2013-03-07 21:11:00,24.5,21.5,30.41,NNW,343,0.0,0.0,88,0.00,,,0.23,Wunderground v.1.15,2013-03-08 03:11:00,
2013-03-07 21:17:00,24.3,21.5,30.41,NNW,343,0.0,0.0,89,0.00,,,0.23,Wunderground v.1.15,2013-03-08 03:17:00,
2013-03-07 21:23:00,24.0,21.2,30.41,NNW,343,0.0,0.0,89,0.00,,,0.23,Wunderground v.1.15,2013-03-08 03:23:00,
2013-03-07 21:29:00,23.8,21.0,30.41,NNW,343,0.0,0.0,89,0.00,,,0.23,Wunderground v.1.15,2013-03-08 03:29:00,
2013-03-07 21:34:00,23.6,20.8,30.41,NNW,343,0.0,0.0,89,0.00,,,0.23,Wunderground v.1.15,2013-03-08 03:34:00,
2013-03-07 21:40:00,23.3,20.5,30.41,NNW,343,0.0,0.0,89,0.00,,,0.23,Wunderground v.1.15,2013-03-08 03:40:00,
2013-03-07 21:46:00,23.1,20.6,30.41,NNW,343,0.0,0.0,90,0.00,,,0.23,Wunderground v.1.15,2013-03-08 03:46:00,
2013-03-07 21:52:00,22.9,20.4,30.41,NNW,343,0.0,0.0,90,0.00,,,0.23,Wunderground v.1.15,2013-03-08 03:52:00,
2013-03-07 21:58:00,22.7,20.2,30.41,NNW,343,0.0,0.0,90,0.00,,,0.23,Wunderground v.1.15,2013-03-08 03:58:00,
2013-03-07 22:03:00,22.5,20.0,30.41,NNW,343,0.0,0.0,90,0.00,,,0.23,Wunderground v.1.15,2013-03-08 04:03:00,
2013-03-07 22:09:00,22.3,20.1,30.41,NNW,343,0.0,0.0,91,0.00,,,0.23,Wunderground v.1.15,2013-03-08 04:09:00,
2013-03-07 22:15:00,22.2,20.0,30.41,NNW,343,0.0,0.0,91,0.00,,,0.23,Wunderground v.1.15,2013-03-08 04:15:00,
2013-03-07 22:20:00,22.0,19.8,30.41,NNW,343,0.0,0.0,91,0.00,,,0.23,Wunderground v.1.15,2013-03-08 04:20:00,
2013-03-07 22:25:00,21.8,19.6,30.41,NNW,343,0.0,0.0,91,0.00,,,0.23,Wunderground v.1.15,2013-03-08 04:25:00,
2013-03-07 22:31:00,21.5,19.3,30.41,NNW,343,0.0,0.0,91,0.00,,,0.23,Wunderground v.1.15,2013-03-08 04:31:00,
2013-03-07 22:37:00,21.2,18.7,30.40,North,355,0.0,1.0,90,0.00,,,0.23,Wunderground v.1.15,2013-03-08 04:37:00,
2013-03-07 22:43:00,20.7,18.2,30.41,North,355,0.0,1.0,90,0.00,,,0.23,Wunderground v.1.15,2013-03-08 04:43:00,
2013-03-07 22:49:00,20.2,17.5,30.40,North,355,0.0,1.0,89,0.00,,,0.23,Wunderground v.1.15,2013-03-08 04:49:00,
2013-03-07 22:55:00,19.8,17.1,30.41,North,355,0.0,1.0,89,0.00,,,0.23,Wunderground v.1.15,2013-03-08 04:55:00,
2013-03-07 23:00:00,19.6,17.1,30.41,North,355,0.0,0.0,90,0.00,,,0.23,Wunderground v.1.15,2013-03-08 05:00:00,
2013-03-07 23:01:00,19.5,17.0,30.41,North,355,0.0,0.0,90,0.00,,,0.23,Wunderground v.1.15,2013-03-08 05:01:00,
2013-03-07 23:04:00,19.4,16.9,30.41,North,355,0.0,0.0,90,0.00,,,0.23,Wunderground v.1.15,2013-03-08 05:04:00,
2013-03-07 23:05:00,19.3,16.8,30.41,North,355,0.0,0.0,90,0.00,,,0.23,Wunderground v.1.15,2013-03-08 05:05:00,
2013-03-07 23:11:00,19.1,16.7,30.41,North,355,0.0,0.0,90,0.00,,,0.23,Wunderground v.1.15,2013-03-08 05:11:00,
2013-03-07 23:16:00,18.9,16.7,30.41,North,355,0.0,0.0,91,0.00,,,0.23,Wunderground v.1.15,2013-03-08 05:16:00,
2013-03-07 23:21:00,18.8,16.6,30.41,North,355,0.0,0.0,91,0.00,,,0.23,Wunderground v.1.15,2013-03-08 05:21:00,
2013-03-07 23:27:00,18.8,16.9,30.41,North,355,0.0,0.0,92,0.00,,,0.23,Wunderground v.1.15,2013-03-08 05:27:00,
2013-03-07 23:32:00,18.9,17.2,30.41,North,355,0.0,0.0,93,0.00,,,0.23,Wunderground v.1.15,2013-03-08 05:32:00,
2013-03-07 23:38:00,19.0,17.3,30.41,North,355,0.0,0.0,93,0.00,,,0.23,Wunderground v.1.15,2013-03-08 05:38:00,
2013-03-07 23:44:00,19.0,17.3,30.41,North,355,0.0,0.0,93,0.00,,,0.23,Wunderground v.1.15,2013-03-08 05:44:00,
2013-03-07 23:50:00,19.0,17.3,30.41,North,355,0.0,0.0,93,0.00,,,0.23,Wunderground v.1.15,2013-03-08 05:50:00,
2013-03-07 23:56:00,19.1,17.4,30.41,North,355,0.0,0.0,93,0.00,,,0.23,Wunderground v.1.15,2013-03-08 05:56:00,